Terminal Aerodrome Forecast
Issued by NWS New Orleans/Baton Rouge, LA

Home | Current Version | Previous Version | Text Only | Print | Product List | Glossary On
Versions: 1 2 3 4 5 6 7 8 9 10 11 12
000
FTUS44 KLIX 031120
TAFBTR
TAF
KBTR 031120Z 0312/0412 05008KT P6SM VCSH OVC045
     FM031500 09012KT P6SM -RA SCT030 OVC070
     FM040000 09012KT P6SM -SHRA OVC025
     FM040400 09008KT P6SM -SHRA OVC010=

USA.gov is the U.S. government's official web portal to all federal, state and local government web resources and services.